Regional Weather Roundup
Issued by NWS

Home | Current Version | Previous Version | Graphics & Text | Print | Product List | Glossary On
Versions: 1 2 3 4 5 6 7 8 9 10 11 12 13 14 15 16 17 18 19 20 21 22 23 24 25 26 27 28 29 30 31 32 33 34 35 36 37 38 39 40 41 42 43 44 45 46 47 48 49 50
000
ASUS43 KDMX 162006
RWRIA

WEATHER ROUNDUP FOR IOWA
NATIONAL WEATHER SERVICE DES MOINES IA
200 PM CST TUE JAN 16 2018

NOTE: "FAIR" INDICATES FEW OR NO CLOUDS BELOW 12,000 FEET WITH NO
SIGNIFICANT WEATHER AND/OR OBSTRUCTIONS TO VISIBILITY.

* - THESE STATIONS ARE NOT NWS STATIONS...THUS NOT UNDER NWS
QUALITY CONTROL.  THEY ALSO DO NOT REPORT WEATHER SUCH
AS PRECIPITATION OR FOG.

IAZ001>003-012>014-020>022-031>034-043>046-162100-
   NORTHWEST IOWA

CITY           SKY/WX    TMP DP  RH WIND       PRES   REMARKS
CARROLL *      PTSUNNY    5  -2  72 NW13      30.68S WCI -12
CHEROKEE *     SUNNY      7  -1  72 W9        30.68F WCI  -7
DENISON *      MOSUNNY    5  -2  72 NW12      30.70F WCI -11
LE MARS *      SUNNY      5   0  78 NW9       30.70F WCI  -9
ORANGE CITY *  SUNNY      5   0  78 NW10      30.66F WCI -10
SHELDON *      MOSUNNY    3  -2  78 NW12      30.65F WCI -13
SIOUX CITY     SUNNY      6  -1  73 NW8       30.72F WCI  -7
SPENCER        SUNNY      6  -1  73 W13       30.65F WCI -10
STORM LAKE *   MOSUNNY    3  -2  78 NW12      30.64F WCI -13
$$

IAZ055>058-069>071-079>083-090>094-162100-
   SOUTHWEST IOWA

CITY           SKY/WX    TMP DP  RH WIND       PRES   REMARKS
ATLANTIC *     CLOUDY     5   0  78 NW12      30.70S WCI -11
AUDUBON *      PTSUNNY    5   0  78 NW8       30.68S WCI  -8
CLARINDA *     CLOUDY     7   1  78 N10         N/A  WCI  -8
COUNCIL BLFS * SUNNY      7   1  78 NW10      30.70F WCI  -8
CRESTON *      PTSUNNY    7   0  72 NW13      30.67R WCI  -9
HARLAN  *      PTSUNNY    5   0  78 NW12      30.73F WCI -11
LAMONI         SUNNY      7  -2  66 NW14      30.66S WCI -10
RED OAK *      CLOUDY     7   0  72 NW10      30.72F WCI  -8
SHENANDOAH *   PTSUNNY    7   0  72 NW6       30.74F WCI  -3
$$

IAZ047>049-059>061-072>074-084-162100-
   CENTRAL IOWA

CITY           SKY/WX    TMP DP  RH WIND       PRES   REMARKS
AMES           CLOUDY     7   1  76 NW12      30.67F WCI  -8
ANKENY *       CLOUDY     7   1  78 NW9       30.69S WCI  -7
BOONE *        PTSUNNY    5   0  78 NW10      30.65S WCI -10
CHARITON *     SUNNY      7  -2  66 NW12      30.66R WCI  -9
DES MOINES     FLURRIES   5  -2  72 NW15      30.67F WCI -13
GRINNELL*      PTSUNNY    6   1  78 NW16      30.64S WCI -12
KNOXVILLE *    SUNNY      7  -4  61 NW15      30.65S WCI -11
MARSHALLTOWN   SUNNY      6   0  76 NW15      30.63F WCI -12
NEWTON *       CLOUDY     5   0  78 NW14      30.65S WCI -12
PELLA *        MOSUNNY    8   0  69 NW13      30.67F WCI  -8
PERRY *        CLOUDY     5  -2  75 NW10      30.69S WCI -10
$$

IAZ004>006-015-016-023>025-035-036-162100-
   NORTH CENTRAL IOWA

CITY           SKY/WX    TMP DP  RH WIND       PRES   REMARKS
ALGONA *       SUNNY      3 N/A N/A NW9       30.64F WCI -11
CLARION *      MOSUNNY    3   0  85 NW12      30.65S WCI -13
ESTHERVILLE    SUNNY      2  -3  80 NW12      30.64F WCI -15
FORT DODGE *   MOSUNNY    3  -4  72 NW8       30.67S WCI -10
MASON CITY     CLOUDY     4  -1  80 NW13      30.63S WCI -13
FOREST CITY *  CLOUDY     5   0  78 NW9       30.63S HAZE    WCI  -9
WEBSTER CITY * CLOUDY     3  -2  78 NW16      30.65R WCI -16
IOWA FALLS *     N/A      8   2  75 NW14      30.64F HAZE    WCI  -8
$$

IAZ007>011-017>019-026>030-037>042-050>054-066-162100-
   NORTHEAST IOWA

CITY           SKY/WX    TMP DP  RH WIND       PRES   REMARKS
CEDAR RAPIDS     N/A     11   4  73 NW16      30.59S BLWGSNOWWCI  -6
CHARLES CITY * CLOUDY     5   1  85 NW12      30.61S WCI -11
CLINTON *        N/A     18  11  74 NW13      30.56S WCI   5
DECORAH *      CLOUDY    10   7  85 N8        30.55F WCI  -1
DUBUQUE          N/A     17   8  67 NW7       30.52S WCI   8
MONTICELLO *   PTSUNNY   14   7  73 W13       30.56F WCI   0
OELWEIN *        N/A      9   5  85 NW15      30.59S WCI  -8
WATERLOO         N/A      7  -1  70 NW13      30.63S WCI  -9
$$

IAZ064-065-067-068-078-162100-
   EAST CENTRAL IOWA

CITY           SKY/WX    TMP DP  RH WIND       PRES   REMARKS
DAVENPORT      CLOUDY    16   8  71 NW14      30.58S WCI   2
IOWA CITY        N/A     13   3  64 NW13      30.63S WCI  -2
MT. PLEASANT * SUNNY     10   1  67 W12G18    30.63S WCI  -4
MUSCATINE *    PTSUNNY   14   5  67 NW15      30.63S WCI  -1
QUAD CITIES    FLURRIES  14   7  73 W13       30.58R WCI   0
$$

IAZ062-063-075>077-085>089-095>099-162100-
   SOUTHEAST IOWA

CITY           SKY/WX    TMP DP  RH WIND       PRES   REMARKS
BURLINGTON     SUNNY     11   2  67 W8        30.60S WCI  -1
FAIRFIELD *    PTSUNNY    7  -2  66 W12       30.63S WCI  -9
FORT MADISON * SUNNY     10   3  72 NW14      30.62S WCI  -5
KEOKUK *       CLOUDY    10   1  67 NW12      30.63S WCI  -4
OSKALOOSA *      N/A      7   0  71 NW13      30.66R WCI  -9
OTTUMWA        MOSUNNY    8  -1  66 NW14      30.65S WCI  -8
WASHINGTON *   MOSUNNY   10   3  72 W15       30.64R WCI  -6
$$

ABBREVIATIONS USED IN REMARKS
   TC - TEMPERATURES IN CELSIUS
  WCI - WIND CHILL INDEX
   HX - HEAT INDEX
  VSB - VISIBILITY
$$




USA.gov is the U.S. government's official web portal to all federal, state and local government web resources and services.